| time (UTC) | temp F | wind direction | speed MPH | gust MPH | rain 1hr in | rain 24hr in | rain mn in | humidity % | barometer mb |
| 20260507064558 | 51 | 32 | 0.0 | 0.0 | 0.00 | 0.01 | 0.01 | 95 | 1013.8 |
| 20260507063058 | 51 | 9 | 0.0 | 0.0 | 0.00 | 0.01 | 0.01 | 95 | 1013.9 |
| 20260507061558 | 51 | 10 | 0.0 | 0.0 | 0.00 | 0.01 | 0.01 | 94 | 1014.0 |
| 20260507054558 | 51 | 317 | 0.0 | 0.0 | 0.00 | 0.01 | 0.01 | 94 | 1014.3 |
| 20260507053056 | 52 | 5 | 0.0 | 0.0 | 0.00 | 0.01 | 0.01 | 94 | 1014.3 |
| 20260507051556 | 52 | 54 | 0.0 | 0.0 | 0.00 | 0.01 | 0.01 | 94 | 1014.3 |
| 20260507050055 | 52 | 83 | 0.0 | 0.0 | 0.00 | 0.01 | 0.01 | 94 | 1014.3 |
| 20260507044606 | 52 | 349 | 0.0 | 0.0 | 0.00 | 0.01 | 0.01 | 93 | 1014.5 |
| 20260507043104 | 52 | 81 | 0.0 | 0.0 | 0.00 | 0.01 | 0.01 | 93 | 1014.5 |
| 20260507041557 | 52 | 5 | 0.0 | 0.0 | 0.00 | 0.01 | 0.01 | 93 | 1014.4 |
| 20260507040053 | 52 | 46 | 0.0 | 0.0 | 0.00 | 0.01 | 0.01 | 92 | 1014.4 |
| 20260507034554 | 53 | 271 | 0.0 | 0.0 | 0.00 | 0.01 | 0.01 | 92 | 1014.3 |
| 20260507033053 | 53 | 246 | 0.0 | 0.0 | 0.00 | 0.01 | 0.01 | 91 | 1014.3 |
| 20260507031551 | 53 | 24 | 0.0 | 0.0 | 0.00 | 0.01 | 0.01 | 90 | 1014.2 |
| 20260507030051 | 54 | 163 | 0.0 | 0.0 | 0.00 | 0.01 | 0.01 | 89 | 1014.1 |
| 20260507024554 | 55 | 295 | 0.0 | 0.0 | 0.00 | 0.01 | 0.01 | 87 | 1014.1 |
| 20260507023104 | 56 | 349 | 0.0 | 0.0 | 3.31 | 0.00 | 0.01 | 85 | 1014.0 |
| 20260507021551 | 59 | 267 | 0.0 | 0.0 | 0.00 | 0.01 | 0.01 | 82 | 1013.9 |
| 20260507020149 | 61 | 355 | 0.0 | 0.0 | 0.00 | 0.01 | 0.01 | 79 | 1013.9 |
| 20260507014548 | 62 | 22 | 0.0 | 0.0 | 0.00 | 0.01 | 0.01 | 79 | 1014.0 |
| 20260507013047 | 64 | 345 | 0.0 | 2.0 | 0.00 | 0.01 | 0.01 | 75 | 1014.1 |
| 20260507011548 | 64 | 329 | 0.0 | 0.0 | 0.00 | 0.01 | 0.01 | 75 | 1014.2 |
| 20260507010046 | 64 | 333 | 0.0 | 0.0 | 0.00 | 0.01 | 0.01 | 76 | 1014.3 |
| 20260507004645 | 65 | 306 | 0.0 | 6.0 | 0.00 | 0.01 | 0.01 | 73 | 1014.3 |
| 20260507003045 | 68 | 63 | 0.0 | 0.0 | 0.00 | 0.01 | 0.01 | 71 | 1014.2 |
| 20260507001607 | 68 | 285 | 0.0 | 0.0 | 0.00 | 0.01 | 0.01 | 71 | 1014.2 |
| 20260507000044 | 68 | 238 | 0.0 | 0.0 | 0.00 | 0.01 | 0.01 | 72 | 1014.1 |
| 20260506234541 | 69 | 157 | 0.0 | 0.0 | 0.00 | 0.01 | 0.01 | 70 | 1014.2 |
| 20260506233040 | 67 | 246 | 0.0 | 0.0 | 0.00 | 0.01 | 0.01 | 73 | 1014.1 |
| 20260506231542 | 68 | 256 | 0.0 | 0.0 | 0.00 | 0.01 | 0.01 | 70 | 1014.2 |
| 20260506230051 | 70 | 134 | 0.0 | 0.0 | 0.00 | 0.01 | 0.01 | 71 | 1014.3 |
| 20260506224536 | 69 | 164 | 0.0 | 0.0 | 0.00 | 0.01 | 0.01 | 73 | 1014.4 |
| 20260506223034 | 70 | 262 | 0.0 | 0.0 | 0.00 | 0.01 | 0.01 | 71 | 1014.5 |
| 20260506221533 | 70 | 175 | 0.0 | 0.0 | 0.00 | 0.01 | 0.01 | 70 | 1014.7 |
| 20260506220035 | 70 | 240 | 0.0 | 0.0 | 0.00 | 0.01 | 0.01 | 71 | 1014.9 |
| 20260506214530 | 69 | 184 | 0.0 | 0.0 | 0.00 | 0.01 | 0.01 | 73 | 1014.8 |
| 20260506213029 | 69 | 238 | 0.0 | 8.0 | 0.00 | 0.01 | 0.01 | 74 | 1015.0 |
| 20260506211527 | 68 | 247 | 0.0 | 0.0 | 0.00 | 0.01 | 0.01 | 73 | 1015.0 |
| 20260506210045 | 70 | 299 | 0.0 | 0.0 | 0.00 | 0.01 | 0.01 | 71 | 1015.0 |
| 20260506204524 | 71 | 236 | 0.0 | 0.0 | 0.00 | 0.01 | 0.01 | 73 | 1015.0 |
| 20260506203021 | 70 | 274 | 0.0 | 0.0 | 0.00 | 0.01 | 0.01 | 73 | 1015.1 |
| 20260506201523 | 70 | 206 | 0.0 | 0.0 | 0.00 | 0.01 | 0.01 | 73 | 1015.2 |
| 20260506200018 | 69 | 270 | 0.0 | 0.0 | 0.00 | 0.01 | 0.01 | 72 | 1015.2 |
| 20260506194517 | 68 | 286 | 0.0 | 0.0 | 0.00 | 0.01 | 0.01 | 76 | 1015.3 |
| 20260506193022 | 69 | 188 | 0.0 | 1.0 | 0.00 | 0.01 | 0.01 | 75 | 1015.4 |
| 20260506191512 | 67 | 196 | 0.0 | 0.0 | 0.00 | 0.01 | 0.01 | 78 | 1015.5 |
| 20260506190011 | 66 | 258 | 0.0 | 5.0 | 0.00 | 0.01 | 0.01 | 81 | 1015.6 |
| 20260506184505 | 66 | 263 | 0.0 | 1.0 | 0.00 | 0.01 | 0.01 | 81 | 1015.7 |
| 20260506183002 | 65 | 143 | 0.0 | 0.0 | 0.00 | 0.01 | 0.01 | 82 | 1015.6 |
| 20260506181604 | 64 | 166 | 0.0 | 0.0 | 0.00 | 0.01 | 0.01 | 84 | 1015.7 |
| 20260506180056 | 62 | 223 | 0.0 | 0.0 | 0.00 | 0.01 | 0.01 | 87 | 1015.7 |
| 20260506174552 | 61 | 197 | 0.0 | 0.0 | 0.00 | 0.01 | 0.01 | 89 | 1015.6 |
| 20260506173056 | 59 | 180 | 0.0 | 0.0 | 0.00 | 0.01 | 0.01 | 92 | 1015.7 |
| 20260506171545 | 58 | 254 | 0.0 | 0.0 | 0.00 | 0.01 | 0.01 | 93 | 1015.7 |
| 20260506170047 | 57 | 186 | 0.0 | 0.0 | 0.00 | 0.01 | 0.01 | 94 | 1015.7 |
| 20260506164554 | 56 | 178 | 0.0 | 0.0 | 0.00 | 0.01 | 0.01 | 95 | 1015.9 |
| 20260506163041 | 55 | 159 | 0.0 | 0.0 | 0.00 | 0.01 | 0.01 | 95 | 1015.9 |
| 20260506161535 | 55 | 274 | 0.0 | 0.0 | 0.00 | 0.01 | 0.01 | 96 | 1015.7 |
| 20260506160036 | 54 | 251 | 0.0 | 0.0 | 0.01 | 0.01 | 0.01 | 96 | 1015.7 |
| 20260506154532 | 53 | 262 | 0.0 | 0.0 | 0.01 | 0.01 | 0.01 | 96 | 1015.7 |
| 20260506153031 | 53 | 202 | 0.0 | 0.0 | 0.01 | 0.01 | 0.01 | 96 | 1015.6 |
| 20260506151530 | 53 | 252 | 0.0 | 0.0 | 0.01 | 0.01 | 0.01 | 96 | 1015.6 |
| 20260506150028 | 53 | 5 | 0.0 | 0.0 | 0.00 | 0.00 | 0.00 | 96 | 1015.7 |
| 20260506144529 | 52 | 28 | 0.0 | 0.0 | 0.00 | 0.00 | 0.00 | 96 | 1015.7 |
| 20260506143025 | 52 | 24 | 0.0 | 0.0 | 0.00 | 0.00 | 0.00 | 96 | 1015.7 |
| 20260506141529 | 52 | 39 | 0.0 | 0.0 | 0.00 | 0.00 | 0.00 | 96 | 1015.5 |
| 20260506140022 | 52 | 39 | 0.0 | 0.0 | 0.00 | 0.00 | 0.00 | 96 | 1015.4 |
| 20260506134520 | 52 | 300 | 0.0 | 0.0 | 0.00 | 0.00 | 0.00 | 96 | 1015.3 |
| 20260506133019 | 52 | 300 | 0.0 | 0.0 | 0.00 | 0.00 | 0.00 | 95 | 1015.1 |
| 20260506131521 | 52 | 300 | 0.0 | 0.0 | 0.00 | 0.00 | 0.00 | 95 | 1015.0 |
| 20260506130017 | 52 | 300 | 0.0 | 0.0 | 0.00 | 0.00 | 0.00 | 95 | 1015.0 |
| 20260506124516 | 52 | 300 | 0.0 | 0.0 | 0.00 | 0.00 | 0.00 | 95 | 1015.0 |
| 20260506123016 | 51 | 300 | 0.0 | 0.0 | 0.00 | 0.00 | 0.00 | 95 | 1014.9 |
| 20260506121515 | 51 | 300 | 0.0 | 0.0 | 0.00 | 0.00 | 0.00 | 95 | 1014.9 |
| 20260506120028 | 51 | 300 | 0.0 | 0.0 | 0.00 | 0.00 | 0.00 | 95 | 1014.8 |
| 20260506114511 | 51 | 300 | 0.0 | 0.0 | 0.00 | 0.00 | 0.00 | 95 | 1014.7 |
| 20260506113011 | 51 | 291 | 0.0 | 0.0 | 0.00 | 0.00 | 0.00 | 95 | 1014.7 |
| 20260506111509 | 51 | 291 | 0.0 | 0.0 | 0.00 | 0.00 | 0.00 | 95 | 1014.6 |
| 20260506110009 | 52 | 291 | 0.0 | 0.0 | 0.00 | 0.00 | 0.00 | 95 | 1014.4 |
| 20260506104505 | 52 | 291 | 0.0 | 0.0 | 0.00 | 0.00 | 0.00 | 95 | 1014.3 |
| 20260506103015 | 51 | 291 | 0.0 | 0.0 | 0.00 | 0.00 | 0.00 | 95 | 1014.2 |
| 20260506101504 | 52 | 5 | 0.0 | 0.0 | 0.00 | 0.00 | 0.00 | 95 | 1013.9 |
| 20260506100002 | 52 | 5 | 0.0 | 0.0 | 0.00 | 0.00 | 0.00 | 95 | 1013.9 |
| 20260506094604 | 52 | 5 | 0.0 | 0.0 | 0.00 | 0.00 | 0.00 | 95 | 1013.9 |
| 20260506093101 | 52 | 5 | 0.0 | 0.0 | 0.00 | 0.00 | 0.00 | 94 | 1013.9 |
| 20260506091604 | 52 | 5 | 0.0 | 0.0 | 0.00 | 0.00 | 0.00 | 94 | 1013.8 |
| 20260506090104 | 52 | 5 | 0.0 | 0.0 | 0.00 | 0.00 | 0.00 | 94 | 1013.7 |
| 20260506084629 | 52 | 5 | 0.0 | 0.0 | 0.00 | 0.00 | 0.00 | 94 | 1013.8 |
| 20260506083057 | 52 | 5 | 0.0 | 0.0 | 0.00 | 0.00 | 0.00 | 94 | 1013.8 |
| 20260506081600 | 52 | 5 | 0.0 | 0.0 | 0.00 | 0.00 | 0.00 | 94 | 1013.7 |
| 20260506073052 | 52 | 336 | 0.0 | 0.0 | 0.00 | 0.00 | 0.00 | 94 | 1013.7 |
| 20260506071551 | 52 | 336 | 0.0 | 0.0 | 0.00 | 0.00 | 0.00 | 94 | 1013.5 |